068  
ASUS41 KPHI 220013  
RWRPHI  
 
REGIONAL WEATHER ROUNDUP  
NATIONAL WEATHER SERVICE MOUNT HOLLY NJ  
800 PM EDT SAT APR 21 2018  
 
NOTE: "FAIR" INDICATES FEW OR NO CLOUDS BELOW 12,000 FEET WITH NO  
SIGNIFICANT WEATHER AND/OR S TO VISIBILITY
.  
 
* = STATION DOES NOT REPORT PRECIPITATION (E.G. RAIN, SNOW, ETC.)  
OR FOG.
 
 
NJZ015>026-220100-  
SOUTHERN NEW JERSEY  
 
CITY SKY/WX TMP DP RH WIND PRES REMARKS
 
POMONA FAIR 57 28 33 W7 30.33R  
6HR MIN TEMP: 57; 6HR MAX TEMP: 63;  
 
WILDWOOD* FAIR 48 36 63 S9 30.37R  
MILLVILLE FAIR 51 30 44 SW3 30.35R  
WRIGHTSTOWN FAIR 55 28 36 SW6 30.29R  
MOUNT HOLLY FAIR 57 25 29 W5 30.32R  
TRENTON FAIR 57 25 29 W3 30.31R  
6HR MIN TEMP: 56; 6HR MAX TEMP: 61;  
 

 
NJZ001>014-220100-  
NORTHERN NEW JERSEY  
 
CITY SKY/WX TMP DP RH WIND PRES REMARKS
 
SUSSEX FAIR 55 18 23 N5 30.31R  
ANDOVER* N/A 54 16 22 VRB3 30.31R  
MORRISTOWN MOCLDY 55 18 22 N7 30.31R  
NEWARK MOCLDY 60 31 33 NW12 30.29R  
TETERBORO FAIR 58 20 22 NW12 30.28R  
CALDWELL FAIR 57 16 20 NW7 30.30R  
SOMERVILLE FAIR 57 20 23 NW7 30.29R  
ALLAIRE* FAIR 56 26 31 SW7 30.31R  
TOMS RIVER* FAIR 52 31 44 S3 30.32R  
 

 
PAZ043-044-047-054-055-060>062-066>071-220100-  
EASTERN PENNSYLVANIA  
 
CITY SKY/WX TMP DP RH WIND PRES REMARKS
 
PHILADELPHIA MOCLDY 57 28 33 W13 30.34R  
6HR MIN TEMP: 56; 6HR MAX TEMP: 60;  
 
NORTH PHILA FAIR 57 26 30 W7 30.33R  
BLUE BELL* FAIR 54 32 43 SW5 30.33S  
DOYLESTOWN FAIR 55 26 32 W3 30.30R  
QUAKERTOWN* CLEAR 55 27 33 CALM 30.31R  
PERKASIE* FAIR 54 25 32 CALM 30.32R  
POTTSTOWN FAIR 54 25 32 SW3 30.33R  
LANCASTER FAIR 54 30 40 W5 30.33R  
COATESVILLE FAIR 54 25 32 SW3 30.35R  
READING FAIR 56 25 30 W6 30.31R  
6HR MIN TEMP: 56; 6HR MAX TEMP: 61;  
 
ALLENTOWN FAIR 54 24 31 N7 30.31R  
6HR MIN TEMP: 54; 6HR MAX TEMP: 61;  
 
MOUNT POCONO FAIR 46 18 32 NW7 30.30R  
6HR MIN TEMP: 46; 6HR MAX TEMP: 53;  
 
HAZLETON FAIR 50 18 27 N3 30.34R  
LEHIGHTON FAIR 54 21 28 CALM 30.32R  
WILKES BARRE FAIR 51 22 31 N8 30.32R  
 

 
DEZALL-MDZ008-012-015-019-020-220100-  
DELAWARE AND EASTERN MARYLAND  
 
CITY SKY/WX TMP DP RH WIND PRES REMARKS
 
WILMINGTON FAIR 53 28 38 W6 30.35R  
6HR MIN TEMP: 53; 6HR MAX TEMP: 61;  
 
DOVER FAIR 55 28 36 SW3 30.35R  
GEORGETOWN FAIR 56 27 32 CALM 30.37R  
6HR MIN TEMP: 56; 6HR MAX TEMP: 61;  
 
EASTON PTCLDY 54 30 40 CALM 30.40R  
ABERDEEN FAIR 51 32 47 W3 30.36R  
PATUXENT FAIR 52 35 52 S6 30.36  
OCEAN CITY FAIR 47 38 71 S8 30.39R  
WALLOPS ISLAND FAIR 48 40 73 S10 30.39R  
CAMBRIDGE CLEAR 50 37 62 CALM 30.37R  
SALISBURY FAIR 52 32 46 W5 30.36R  
 

 
PAZ001-021-NYZ056-072-MDZ011-DCZ001-220100-  
OTHER NEARBY LOCATIONS  
 
CITY SKY/WX TMP DP RH WIND PRES REMARKS
 
HARRISBURG MOCLDY 51 33 50 CALM 30.33R  
STATE COLLEGE CLEAR 55 19 24 CALM 30.32R  
WILLIAMSPORT FAIR 57 17 21 N3 30.32R  
BINGHAMTON FAIR 44 17 33 N8 30.33R  
NEW YORK CITY FAIR 59 17 19 VRB7 30.31R  
BALTIMORE MOCLDY 54 31 41 SE6 30.34R  
WASHINGTON DC CLOUDY 58 32 37 S5 30.35S  
 

 
 
 
CLICK HERE TO GO TO PREVIOUS BULLETINS.

The Nexlab PA Page
The Nexlab NJ Page
The Nexlab DE Page
The Nexlab MD Page Main Text Page